Regional Weather Roundup
Issued by NWS

Home | Current Version | Previous Version | Graphics & Text | Print | Product List | Glossary On
Versions: 1 2 3 4 5 6 7 8 9 10 11 12 13 14 15 16 17 18 19 20 21 22 23 24 25 26 27 28 29 30 31 32 33 34 35 36 37 38 39 40 41 42 43 44 45 46 47 48 49 50
022
ASUS45 KPSR 130210
RWRAZ

ARIZONA HOURLY REGIONAL WEATHER ROUNDUP
NATIONAL WEATHER SERVICE PHOENIX AZ
700 PM MST FRI FEB 12 2016

NOTE: FAIR INDICATES FEW OR NO CLOUDS BELOW 12,000 FEET WITH NO
SIGNIFICANT WEATHER AND/OR OBSTRUCTIONS TO VISIBILITY.

AZZ001>003-036-130300-
NORTHWEST ARIZONA

CITY           SKY/WX    TMP DP  RH WIND       PRES   REMARKS
BULLHEAD CITY  CLEAR     73  25  16 NE10      30.08S
KINGMAN        CLEAR     52  23  32 CALM      30.19R
$$

AZZ004>008-015-016-018-130300-
NORTH CENTRAL ARIZONA

CITY           SKY/WX    TMP DP  RH WIND       PRES   REMARKS
GRAND CANYON   CLEAR     42  27  55 CALM      30.34S
WILLIAMS       CLEAR     48  18  29 SE7       30.39R
PRESCOTT       CLEAR     60  20  21 SW3       30.25R
FLAGSTAFF      CLEAR     42  20  41 CALM      30.36R
PAYSON         CLEAR     59  18  20 S3        30.27S
PAGE           CLEAR     49  30  48 CALM      30.28S
$$

AZZ009>014-017-130300-
NORTHEAST ARIZONA

CITY           SKY/WX    TMP DP  RH WIND       PRES   REMARKS
WINSLOW        CLEAR     45  17  32 W5        30.27R
SAINT JOHNS    CLEAR     48  14  25 W8        30.28R
WINDOW ROCK    CLEAR     50   0  12 CALM      30.36R
SHOW LOW       CLEAR     48  16  27 CALM      30.34S
$$

AZZ023-130300-
GREATER PHOENIX AREA

CITY           SKY/WX    TMP DP  RH WIND       PRES   REMARKS
PHOENIX        CLEAR     78  25  14 W6        30.03R
BUCKEYE        CLEAR     68  36  30 CALM      30.07S
GLENDALE       CLEAR     75  28  17 CALM      30.06R
LUKE AFB       CLEAR     70  38  31 W5        30.03S
DEER VALLEY    CLEAR     72  30  21 N5        30.06R
SCOTTSDALE     CLEAR     77  27  15 N3        30.07R
MESA-FALCON    CLEAR    N/A N/A N/A W7        30.05R
MESA-GATEWAY   PTCLDY    73  27  17 CALM      30.06R
CHANDLER       CLEAR     73  30  20 CALM      30.05R
$$

AZZ027-028-130300-
SOUTHWEST MARICOPA COUNTY AND PINAL COUNTY

CITY           SKY/WX    TMP DP  RH WIND       PRES   REMARKS
CASA GRANDE    CLEAR     70  28  21 NW6       30.07S
GILA BEND      FAIR      74  30  20 MISG      30.03S
$$

AZZ503-504-507>509-130300-
SOUTHEAST ARIZONA

CITY           SKY/WX    TMP DP  RH WIND       PRES   REMARKS
TUCSON         PTCLDY    74  18  12 W5        30.11R
DAVIS-MONTHAN  CLEAR     69  22  16 NW10      30.09R
RYAN FIELD     CLEAR     72  27  18 NW8       30.11R
NOGALES        MOCLDY    65  10  11 E9        30.16R
SIERRA VISTA   MOCLDY    57  17  21 S8        30.22S
DOUGLAS        PTCLDY    65   3   8 S3        30.20R
SAFFORD        CLEAR     61  21  21 N6        30.15R
$$

AZZ020-021-025-026-031-130300-
SOUTHWEST ARIZONA

CITY           SKY/WX    TMP DP  RH WIND       PRES   REMARKS
YUMA           PTCLDY    78  23  13 N6        30.02S
$$

CAZ031-033-041-043-047-048-061-130300-
SOUTHERN CALIFORNIA

CITY           SKY/WX    TMP DP  RH WIND       PRES   REMARKS
DOWNTOWN L.A.  CLEAR     68  45  43 CALM      30.04R
L.A. AIRPORT   PTCLDY    63  53  70 W7        30.05S
SAN DIEGO      PTCLDY    68  49  50 NW5       30.07R
BURBANK        CLEAR     75  35  23 E6        30.04S
ONTARIO        PTCLDY    73  37  27 W7        30.05R
RIVERSIDE      CLEAR     76  38  25 W5        30.05R
PALM SPRINGS   PTCLDY    78  29  16 VRB3      30.05S
EL CENTRO NAS  PTCLDY    75  33  21 S3        30.03S
IMPERIAL       CLEAR     72  38  29 W3        30.01S
BLYTHE         CLEAR     75  33  21 SE3       30.04S
NEEDLES        CLEAR     72  24  16 NW7       30.07S
$$

NVZ020-UTZ003-130300-
SOUTHERN NEVADA-UTAH

CITY           SKY/WX    TMP DP  RH WIND       PRES   REMARKS
LAS VEGAS      PTCLDY    69  24  18 CALM      30.11S
SALT LAKE CITY CLOUDY    30  27  88 W3        30.35S FOG
$$

NMZ009-TXZ055-130300-
NEW MEXICO-WEST TEXAS

CITY           SKY/WX    TMP DP  RH WIND       PRES   REMARKS
ALBUQUERQUE    CLEAR     58  17  20 SW3       30.30R
EL PASO        PTCLDY    62  13  14 E6        30.24R
$$


........................KEY........................
SKY/WX - SKY CONDITION/WEATHER
TMP    - TEMPERATURE IN FAHRENHEIT
DP     - DEW POINT IN FAHRENHEIT
RH     - RELATIVE HUMIDITY IN PERCENT
WIND   - DIRECTION AND SPEED IN MILES PER HOUR (MPH)
VRB    - VARIABLE WIND DIRECTION
PRES   - MEAN SEA LEVEL PRESSURE IN INCHES OF MERCURY
         F - FALLING PRESSURE   R - RISING PRESSURE
         S - STEADY PRESSURE
VSB    - VISIBILITY IN MILES
HX     - HEAT INDEX IN FAHRENHEIT
WCI    - WIND CHILL INDEX IN FAHRENHEIT
TC     - TEMPERATURE IN CELSIUS WHICH IS ALSO KNOWN AS
         TEMPERATURE IN CENTIGRADE
AFB    - AIR FORCE BASE
         LUKE AFB IS LUKE AIR FORCE BASE
         DAVIS-MONTHAN IS DAVIS-MONTHAN AIR FORCE BASE
NAS    - NAVAL AIR STATION
         EL CENTRO NAS IS EL CENTRO NAVAL AIR STATION
N/A    - NOT AVAILABLE





USA.gov is the U.S. government's official web portal to all federal, state and local government web resources and services.